JAF2063 EBBR-LOWI

Flight info

Callsign JAF2063
Flight time 1h 15m
Altitude 37000
Route ROUSY DCT GTQ DCT BEGAR DCT TRA DCT GAMSA N871 MADEB MADEB1B
Aircraft B38M/M-SDE1FGHILORVWXY/HB1

Departure

Time 2026-05-06 17:49
Airport Brussels Airport (EBBR)

Arrival

Time 2026-05-06 19:04
Airport Innsbruck Airport (LOWI)
Time Latitude Longitude Altitude Speed Heading
2026-05-06 17:07 50.89988 4.48834 146 ft 0 kts 334°
2026-05-06 17:31 50.89977 4.48843 147 ft 2 kts 335°
2026-05-06 17:32 50.89962 4.48854 147 ft 2 kts 335°
2026-05-06 17:32 50.89947 4.48864 147 ft 2 kts 336°
2026-05-06 17:32 50.89932 4.48875 147 ft 2 kts 337°
2026-05-06 17:32 50.89917 4.48885 148 ft 2 kts 339°
2026-05-06 17:33 50.89901 4.48893 148 ft 2 kts 348°
2026-05-06 17:33 50.89885 4.48893 148 ft 2 kts 40°
2026-05-06 17:33 50.89879 4.48882 148 ft 0 kts 64°
2026-05-06 17:38 50.89890 4.48920 148 ft 8 kts 64°
2026-05-06 17:38 50.89920 4.49022 147 ft 13 kts 65°
2026-05-06 17:39 50.89961 4.49163 146 ft 16 kts 66°
2026-05-06 17:39 50.89929 4.49259 146 ft 11 kts 179°
2026-05-06 17:39 50.89855 4.49231 147 ft 11 kts 194°
2026-05-06 17:39 50.89774 4.49198 147 ft 13 kts 194°
2026-05-06 17:40 50.89680 4.49159 145 ft 9 kts 194°
2026-05-06 17:40 50.89641 4.49133 145 ft 4 kts 213°
2026-05-06 17:40 50.89635 4.49126 145 ft 1 kts 215°
2026-05-06 17:40 50.89625 4.49115 145 ft 4 kts 217°
2026-05-06 17:41 50.89580 4.49075 145 ft 11 kts 201°
2026-05-06 17:41 50.89485 4.49037 145 ft 16 kts 193°
2026-05-06 17:41 50.89368 4.48990 145 ft 18 kts 194°
2026-05-06 17:41 50.89293 4.48888 142 ft 17 kts 250°
2026-05-06 17:42 50.89265 4.48769 143 ft 18 kts 249°
2026-05-06 17:42 50.89224 4.48589 143 ft 17 kts 250°
2026-05-06 17:42 50.89173 4.48370 141 ft 16 kts 250°
2026-05-06 17:42 50.89150 4.48269 140 ft 10 kts 250°
2026-05-06 17:43 50.89127 4.48173 138 ft 8 kts 249°
2026-05-06 17:43 50.89107 4.48090 136 ft 10 kts 249°
2026-05-06 17:43 50.89094 4.48033 136 ft 0 kts 250°
2026-05-06 17:46 50.89089 4.48007 136 ft 5 kts 252°
2026-05-06 17:46 50.89073 4.47941 136 ft 7 kts 242°
2026-05-06 17:46 50.89066 4.47927 135 ft 0 kts 228°
2026-05-06 17:47 50.89049 4.47907 135 ft 8 kts 211°
2026-05-06 17:47 50.88965 4.47930 124 ft 18 kts 145°
2026-05-06 17:47 50.88928 4.48100 125 ft 12 kts 99°
2026-05-06 17:48 50.88942 4.48205 124 ft 10 kts 71°
2026-05-06 17:48 50.89010 4.48498 135 ft 62 kts 69°
2026-05-06 17:48 50.89246 4.49513 144 ft 132 kts 70°
2026-05-06 17:48 50.89610 4.51031 537 ft 157 kts 69°
2026-05-06 17:49 50.90061 4.52619 1284 ft 155 kts 62°
2026-05-06 17:49 50.90542 4.54219 1776 ft 166 kts 65°
2026-05-06 17:49 50.91075 4.55963 2047 ft 189 kts 63°
2026-05-06 17:49 50.91681 4.57859 2575 ft 196 kts 63°
2026-05-06 17:50 50.92318 4.59842 3068 ft 208 kts 63°
2026-05-06 17:50 50.92997 4.61961 3520 ft 223 kts 63°
2026-05-06 17:50 50.93697 4.64258 3954 ft 239 kts 71°
2026-05-06 17:50 50.94193 4.66863 4376 ft 256 kts 73°
2026-05-06 17:51 50.94735 4.69624 4929 ft 266 kts 72°
2026-05-06 17:51 50.95288 4.72455 5611 ft 271 kts 73°
2026-05-06 17:51 50.95679 4.75410 6062 ft 277 kts 92°
2026-05-06 17:51 50.95196 4.78341 6131 ft 277 kts 120°
2026-05-06 17:52 50.93936 4.80618 6120 ft 275 kts 139°
2026-05-06 17:52 50.92467 4.82543 6119 ft 275 kts 142°
2026-05-06 17:52 50.90968 4.84435 6120 ft 275 kts 141°
2026-05-06 17:52 50.89494 4.86358 6119 ft 274 kts 141°
2026-05-06 17:53 50.87865 4.87882 6133 ft 274 kts 165°
2026-05-06 17:53 50.85981 4.88373 6120 ft 274 kts 174°
2026-05-06 17:53 50.84086 4.88639 6121 ft 274 kts 176°
2026-05-06 17:53 50.82187 4.88892 6120 ft 274 kts 175°
2026-05-06 17:54 50.80316 4.89187 6120 ft 274 kts 174°
2026-05-06 17:54 50.78423 4.89497 6116 ft 274 kts 174°
2026-05-06 17:54 50.76528 4.89797 6119 ft 274 kts 175°
2026-05-06 17:54 50.74645 4.90175 6179 ft 270 kts 172°
2026-05-06 17:55 50.72821 4.90653 6941 ft 264 kts 173°
2026-05-06 17:55 50.70954 4.90937 7376 ft 280 kts 175°
2026-05-06 17:55 50.69005 4.91159 7328 ft 278 kts 176°
2026-05-06 17:55 50.67131 4.91400 8090 ft 265 kts 175°
2026-05-06 17:56 50.65239 4.91934 8133 ft 284 kts 167°
2026-05-06 17:56 50.63326 4.92660 8016 ft 282 kts 161°
2026-05-06 17:56 50.61679 4.94276 7934 ft 282 kts 137°
2026-05-06 17:56 50.60286 4.96458 7819 ft 282 kts 134°
2026-05-06 17:57 50.58928 4.98689 7722 ft 281 kts 134°
2026-05-06 17:57 50.57566 5.00899 7819 ft 283 kts 134°
2026-05-06 17:57 50.56189 5.03130 8446 ft 285 kts 134°
2026-05-06 17:57 50.54684 5.05147 9162 ft 287 kts 146°
2026-05-06 17:58 50.53010 5.06829 9838 ft 291 kts 149°
2026-05-06 17:58 50.51285 5.08521 10502 ft 294 kts 146°
2026-05-06 17:58 50.49605 5.10383 11151 ft 297 kts 144°
2026-05-06 17:58 50.47935 5.12309 11782 ft 300 kts 144°
2026-05-06 17:59 50.46200 5.14247 12395 ft 303 kts 145°
2026-05-06 17:59 50.44482 5.16126 13004 ft 306 kts 145°
2026-05-06 17:59 50.42731 5.18054 13599 ft 309 kts 145°
2026-05-06 17:59 50.40964 5.20013 14183 ft 312 kts 145°
2026-05-06 18:00 50.39182 5.21986 14755 ft 315 kts 145°
2026-05-06 18:00 50.37409 5.23940 15314 ft 318 kts 145°
2026-05-06 18:00 50.35594 5.25939 15856 ft 320 kts 145°
2026-05-06 18:00 50.33764 5.27954 16394 ft 323 kts 145°
2026-05-06 18:01 50.31914 5.29990 16923 ft 326 kts 145°
2026-05-06 18:01 50.30052 5.32037 17443 ft 328 kts 145°
2026-05-06 18:01 50.28177 5.34094 17950 ft 331 kts 145°
2026-05-06 18:01 50.26287 5.36168 18444 ft 333 kts 145°
2026-05-06 18:02 50.24380 5.38258 18927 ft 336 kts 145°
2026-05-06 18:02 50.22457 5.40362 19400 ft 339 kts 145°
2026-05-06 18:02 50.20519 5.42482 19867 ft 341 kts 145°
2026-05-06 18:02 50.18568 5.44613 20325 ft 344 kts 145°
2026-05-06 18:03 50.16600 5.46760 20774 ft 346 kts 145°
2026-05-06 18:03 50.14618 5.48921 21213 ft 349 kts 145°
2026-05-06 18:03 50.12619 5.51099 21651 ft 352 kts 145°
2026-05-06 18:03 50.10604 5.53291 22080 ft 354 kts 145°
2026-05-06 18:04 50.08577 5.55493 22502 ft 357 kts 145°
2026-05-06 18:04 50.06535 5.57711 22903 ft 359 kts 145°
2026-05-06 18:04 50.04475 5.59945 23319 ft 361 kts 145°
2026-05-06 18:04 50.02408 5.62184 23726 ft 364 kts 145°
2026-05-06 18:05 50.00325 5.64438 24105 ft 366 kts 145°
2026-05-06 18:05 49.98228 5.66706 24501 ft 369 kts 145°
2026-05-06 18:05 49.96116 5.68986 24872 ft 371 kts 145°
2026-05-06 18:05 49.93988 5.71282 25241 ft 373 kts 145°
2026-05-06 18:06 49.91849 5.73587 25604 ft 375 kts 145°
2026-05-06 18:06 49.89694 5.75905 25957 ft 377 kts 145°
2026-05-06 18:06 49.87529 5.78233 26307 ft 379 kts 145°
2026-05-06 18:06 49.85357 5.80566 26649 ft 382 kts 145°
2026-05-06 18:07 49.83166 5.82916 26985 ft 384 kts 145°
2026-05-06 18:07 49.80965 5.85274 27317 ft 386 kts 146°
2026-05-06 18:07 49.78751 5.87644 27653 ft 388 kts 146°
2026-05-06 18:07 49.76527 5.90022 27960 ft 390 kts 146°
2026-05-06 18:08 49.74292 5.92408 28281 ft 392 kts 146°
2026-05-06 18:08 49.72071 5.94777 28571 ft 393 kts 146°
2026-05-06 18:08 49.69814 5.97182 28870 ft 395 kts 146°
2026-05-06 18:08 49.67515 5.99629 29165 ft 397 kts 146°
2026-05-06 18:09 49.65262 6.02023 29451 ft 399 kts 146°
2026-05-06 18:09 49.62974 6.04452 29732 ft 401 kts 146°
2026-05-06 18:09 49.60668 6.06897 30014 ft 403 kts 146°
2026-05-06 18:09 49.58325 6.09379 30286 ft 405 kts 146°
2026-05-06 18:10 49.56002 6.11837 30552 ft 406 kts 146°
2026-05-06 18:10 49.53694 6.14276 30817 ft 408 kts 146°
2026-05-06 18:10 49.51349 6.16752 31086 ft 410 kts 146°
2026-05-06 18:10 49.48991 6.19237 31333 ft 412 kts 146°
2026-05-06 18:11 49.46625 6.21729 31585 ft 413 kts 146°
2026-05-06 18:11 49.44247 6.24230 31834 ft 415 kts 146°
2026-05-06 18:11 49.41855 6.26742 32082 ft 417 kts 146°
2026-05-06 18:11 49.39456 6.29260 32325 ft 418 kts 146°
2026-05-06 18:12 49.37054 6.31777 32565 ft 420 kts 146°
2026-05-06 18:12 49.34631 6.34312 32800 ft 422 kts 146°
2026-05-06 18:12 49.32207 6.36847 33034 ft 423 kts 146°
2026-05-06 18:12 49.29764 6.39398 33271 ft 425 kts 146°
2026-05-06 18:13 49.27321 6.41946 33495 ft 427 kts 146°
2026-05-06 18:13 49.24857 6.44512 33724 ft 428 kts 146°
2026-05-06 18:13 49.22390 6.47079 33955 ft 430 kts 146°
2026-05-06 18:13 49.19961 6.49603 34170 ft 431 kts 146°
2026-05-06 18:14 49.17470 6.52187 34393 ft 433 kts 146°
2026-05-06 18:14 49.14976 6.54773 34614 ft 435 kts 146°
2026-05-06 18:14 49.12463 6.57374 34833 ft 436 kts 146°
2026-05-06 18:14 49.09945 6.59978 35054 ft 438 kts 146°
2026-05-06 18:15 49.07415 6.62589 35274 ft 440 kts 146°
2026-05-06 18:15 49.04876 6.65209 35478 ft 442 kts 146°
2026-05-06 18:15 49.02327 6.67835 35684 ft 443 kts 146°
2026-05-06 18:15 48.99768 6.70467 35886 ft 445 kts 146°
2026-05-06 18:16 48.97117 6.72908 36089 ft 445 kts 152°
2026-05-06 18:16 48.94387 6.75144 36265 ft 447 kts 152°
2026-05-06 18:16 48.91634 6.77377 36441 ft 449 kts 152°
2026-05-06 18:16 48.88879 6.79640 36618 ft 451 kts 152°
2026-05-06 18:17 48.86122 6.81917 36794 ft 452 kts 152°
2026-05-06 18:17 48.83345 6.84194 36969 ft 454 kts 152°
2026-05-06 18:17 48.77794 6.88718 36994 ft 453 kts 152°
2026-05-06 18:18 48.72274 6.93225 36994 ft 453 kts 152°
2026-05-06 18:18 48.66676 6.97774 36993 ft 454 kts 152°
2026-05-06 18:19 48.61105 7.02294 36993 ft 454 kts 152°
2026-05-06 18:19 48.55535 7.06800 36992 ft 455 kts 152°
2026-05-06 18:20 48.49940 7.11316 36993 ft 456 kts 152°
2026-05-06 18:20 48.44335 7.15828 36994 ft 457 kts 152°
2026-05-06 18:21 48.38732 7.20327 36995 ft 456 kts 152°
2026-05-06 18:21 48.33126 7.24817 36997 ft 456 kts 152°
2026-05-06 18:22 48.27525 7.29292 36997 ft 456 kts 152°
2026-05-06 18:22 48.21919 7.33759 36998 ft 456 kts 152°
2026-05-06 18:23 48.16322 7.38209 36999 ft 454 kts 152°
2026-05-06 18:23 48.10744 7.42633 36998 ft 454 kts 152°
2026-05-06 18:24 48.06104 7.46303 36998 ft 454 kts 152°
2026-05-06 18:24 48.00521 7.50711 36998 ft 454 kts 152°
2026-05-06 18:25 47.94951 7.55133 36998 ft 454 kts 147°
2026-05-06 18:25 47.92459 7.58004 37011 ft 455 kts 134°
2026-05-06 18:25 47.90432 7.61607 37018 ft 454 kts 122°
2026-05-06 18:26 47.88962 7.65775 37027 ft 454 kts 111°
2026-05-06 18:26 47.87829 7.70165 37013 ft 454 kts 110°
2026-05-06 18:26 47.85620 7.79003 37012 ft 456 kts 111°
2026-05-06 18:27 47.83350 7.87863 37013 ft 461 kts 111°
2026-05-06 18:27 47.81086 7.96761 37008 ft 459 kts 111°
2026-05-06 18:28 47.78805 8.05645 37009 ft 459 kts 111°
2026-05-06 18:28 47.76528 8.14499 37008 ft 459 kts 111°
2026-05-06 18:29 47.74240 8.23353 37009 ft 459 kts 111°
2026-05-06 18:29 47.71947 8.32193 37010 ft 458 kts 111°
2026-05-06 18:30 47.69656 8.40993 37011 ft 456 kts 111°
2026-05-06 18:30 47.67574 8.49887 37004 ft 455 kts 109°
2026-05-06 18:31 47.65535 8.58792 37006 ft 456 kts 108°
2026-05-06 18:31 47.63526 8.67707 37007 ft 455 kts 109°
2026-05-06 18:32 47.61490 8.76610 37007 ft 456 kts 109°
2026-05-06 18:32 47.59457 8.85511 37007 ft 456 kts 109°
2026-05-06 18:33 47.57415 8.94396 37008 ft 455 kts 109°
2026-05-06 18:33 47.55362 9.03293 37009 ft 457 kts 109°
2026-05-06 18:34 47.53303 9.12183 37009 ft 456 kts 109°
2026-05-06 18:34 47.51237 9.21062 37010 ft 456 kts 109°
2026-05-06 18:35 47.49165 9.29932 37010 ft 457 kts 109°
2026-05-06 18:35 47.47083 9.38809 37010 ft 457 kts 109°
2026-05-06 18:36 47.44994 9.47682 37010 ft 457 kts 109°
2026-05-06 18:36 47.42888 9.56587 37007 ft 459 kts 109°
2026-05-06 18:37 47.40826 9.65505 36814 ft 458 kts 103°
2026-05-06 18:37 47.40189 9.70104 36314 ft 459 kts 101°
2026-05-06 18:37 47.39607 9.74745 35628 ft 460 kts 100°
2026-05-06 18:38 47.39016 9.79401 34908 ft 463 kts 101°
2026-05-06 18:38 47.38398 9.84069 34131 ft 466 kts 101°
2026-05-06 18:38 47.37771 9.88775 33375 ft 467 kts 101°
2026-05-06 18:38 47.37154 9.93493 32745 ft 466 kts 101°
2026-05-06 18:39 47.36551 9.98108 32195 ft 463 kts 101°
2026-05-06 18:39 47.36255 10.02798 31634 ft 459 kts 84°
2026-05-06 18:39 47.36959 10.07359 31096 ft 455 kts 70°
2026-05-06 18:40 47.38836 10.16169 29978 ft 449 kts 85°
2026-05-06 18:40 47.38892 10.20756 29487 ft 444 kts 92°
2026-05-06 18:40 47.38699 10.25258 29194 ft 435 kts 94°
2026-05-06 18:40 47.38513 10.29664 28905 ft 426 kts 91°
2026-05-06 18:41 47.38567 10.33995 28525 ft 420 kts 86°
2026-05-06 18:41 47.38833 10.38273 28100 ft 416 kts 84°
2026-05-06 18:41 47.39079 10.42507 27645 ft 413 kts 87°
2026-05-06 18:41 47.39182 10.46731 27197 ft 410 kts 89°
2026-05-06 18:42 47.39260 10.50924 26737 ft 407 kts 88°
2026-05-06 18:42 47.39404 10.55078 26307 ft 404 kts 86°
2026-05-06 18:42 47.39569 10.59206 25896 ft 400 kts 87°
2026-05-06 18:42 47.39702 10.63297 25443 ft 398 kts 88°
2026-05-06 18:43 47.39815 10.67370 24998 ft 395 kts 88°
2026-05-06 18:43 47.39937 10.71415 24566 ft 393 kts 87°
2026-05-06 18:43 47.40067 10.75417 24139 ft 390 kts 87°
2026-05-06 18:43 47.40192 10.79403 23675 ft 388 kts 87°
2026-05-06 18:44 47.40309 10.83350 23116 ft 384 kts 87°
2026-05-06 18:44 47.40424 10.87295 22574 ft 385 kts 87°
2026-05-06 18:44 47.40541 10.91241 22033 ft 385 kts 87°
2026-05-06 18:44 47.40658 10.95188 21491 ft 384 kts 87°
2026-05-06 18:45 47.40771 10.99137 20943 ft 385 kts 88°
2026-05-06 18:45 47.40642 11.03005 20427 ft 383 kts 105°
2026-05-06 18:45 47.39486 11.06498 19924 ft 370 kts 131°
2026-05-06 18:45 47.37555 11.08801 19454 ft 358 kts 152°
2026-05-06 18:46 47.35313 11.10274 18908 ft 349 kts 160°
2026-05-06 18:46 47.33040 11.11417 18357 ft 342 kts 162°
2026-05-06 18:46 47.30773 11.12445 17819 ft 342 kts 163°
2026-05-06 18:46 47.28481 11.13449 17277 ft 344 kts 164°
2026-05-06 18:47 47.26172 11.14448 16750 ft 346 kts 164°
2026-05-06 18:47 47.23851 11.15449 16212 ft 348 kts 164°
2026-05-06 18:47 47.21520 11.16451 15678 ft 350 kts 164°
2026-05-06 18:47 47.19178 11.17458 15133 ft 351 kts 164°
2026-05-06 18:48 47.16833 11.18466 14597 ft 352 kts 164°
2026-05-06 18:48 47.14430 11.18792 14237 ft 344 kts 191°
2026-05-06 18:48 47.12366 11.17489 14204 ft 307 kts 222°
2026-05-06 18:48 47.11185 11.15063 14213 ft 290 kts 253°
2026-05-06 18:49 47.11054 11.12176 14206 ft 283 kts 279°
2026-05-06 18:49 47.11504 11.09381 14192 ft 281 kts 287°
2026-05-06 18:49 47.12098 11.06648 14193 ft 281 kts 288°
2026-05-06 18:49 47.12729 11.03922 14187 ft 281 kts 289°
2026-05-06 18:50 47.13367 11.01205 14192 ft 281 kts 289°
2026-05-06 18:50 47.14003 10.98506 14192 ft 279 kts 289°
2026-05-06 18:50 47.14637 10.95817 14192 ft 279 kts 289°
2026-05-06 18:50 47.15272 10.93123 14193 ft 277 kts 289°
2026-05-06 18:51 47.15894 10.90485 14191 ft 275 kts 289°
2026-05-06 18:51 47.16520 10.87831 14188 ft 276 kts 289°
2026-05-06 18:51 47.17151 10.85153 14186 ft 278 kts 289°
2026-05-06 18:51 47.17784 10.82462 14187 ft 279 kts 289°
2026-05-06 18:52 47.18417 10.79774 14177 ft 278 kts 289°
2026-05-06 18:52 47.19049 10.77086 13923 ft 278 kts 289°
2026-05-06 18:52 47.19680 10.74403 13693 ft 277 kts 289°
2026-05-06 18:52 47.20310 10.71724 13439 ft 277 kts 289°
2026-05-06 18:53 47.20937 10.69056 13233 ft 276 kts 289°
2026-05-06 18:53 47.21556 10.66420 13189 ft 271 kts 289°
2026-05-06 18:53 47.22172 10.63798 13189 ft 272 kts 289°
2026-05-06 18:53 47.22782 10.61198 13176 ft 263 kts 289°
2026-05-06 18:54 47.23366 10.58709 13172 ft 254 kts 289°
2026-05-06 18:54 47.24328 10.56577 13238 ft 257 kts 324°
2026-05-06 18:54 47.25992 10.55678 13215 ft 259 kts
2026-05-06 18:54 47.27689 10.56427 13220 ft 260 kts 39°
2026-05-06 18:55 47.28811 10.58476 13201 ft 260 kts 70°
2026-05-06 18:55 47.29264 10.61048 13221 ft 259 kts 84°
2026-05-06 18:55 47.29193 10.63661 13195 ft 252 kts 98°
2026-05-06 18:55 47.28969 10.66191 13183 ft 248 kts 94°
2026-05-06 18:56 47.28964 10.68712 12898 ft 251 kts 85°
2026-05-06 18:56 47.29120 10.71269 12718 ft 249 kts 84°
2026-05-06 18:56 47.29257 10.73815 12398 ft 253 kts 86°
2026-05-06 18:56 47.29354 10.76455 11926 ft 264 kts 87°
2026-05-06 18:57 47.29448 10.79147 11406 ft 260 kts 86°
2026-05-06 18:57 47.29551 10.81773 10884 ft 254 kts 86°
2026-05-06 18:57 47.29654 10.84341 10381 ft 248 kts 86°
2026-05-06 18:57 47.29751 10.86853 9908 ft 243 kts 86°
2026-05-06 18:58 47.29846 10.89314 9433 ft 239 kts 86°
2026-05-06 18:58 47.29938 10.91741 8964 ft 235 kts 86°
2026-05-06 18:58 47.30029 10.94120 8538 ft 230 kts 86°
2026-05-06 18:58 47.30115 10.96408 8493 ft 223 kts 87°
2026-05-06 18:59 47.30200 10.98773 8457 ft 232 kts 87°
2026-05-06 18:59 47.30299 11.01121 8073 ft 229 kts 87°
2026-05-06 18:59 47.30367 11.03397 7913 ft 217 kts 87°
2026-05-06 18:59 47.30435 11.05607 7540 ft 217 kts 87°
2026-05-06 19:00 47.30500 11.07844 7313 ft 221 kts 89°
2026-05-06 19:00 47.30354 11.10184 6711 ft 237 kts 105°
2026-05-06 19:00 47.29742 11.12454 6154 ft 238 kts 116°
2026-05-06 19:00 47.29265 11.13894 5925 ft 233 kts 116°
2026-05-06 19:01 47.28428 11.16389 6339 ft 174 kts 115°
2026-05-06 19:01 47.27898 11.17998 5874 ft 177 kts 117°
2026-05-06 19:01 47.27343 11.19599 5286 ft 175 kts 118°
2026-05-06 19:01 47.26811 11.21195 4719 ft 171 kts 114°
2026-05-06 19:02 47.26351 11.22794 4156 ft 169 kts 112°
2026-05-06 19:02 47.25956 11.24361 3617 ft 159 kts 109°
2026-05-06 19:02 47.25638 11.25876 3095 ft 151 kts 104°
2026-05-06 19:02 47.25480 11.27372 2703 ft 143 kts 92°
2026-05-06 19:03 47.25491 11.28839 2500 ft 144 kts 86°
2026-05-06 19:03 47.25583 11.30276 2291 ft 143 kts 82°
2026-05-06 19:03 47.25733 11.31709 2127 ft 141 kts 79°
2026-05-06 19:03 47.25886 11.33116 1941 ft 135 kts 82°
2026-05-06 19:04 47.26011 11.34304 1899 ft 91 kts 81°
2026-05-06 19:04 47.26079 11.34939 1906 ft 34 kts 81°
2026-05-06 19:04 47.26099 11.35114 1897 ft 16 kts 80°
2026-05-06 19:04 47.26103 11.35224 1900 ft 7 kts 116°
2026-05-06 19:05 47.26058 11.35258 1900 ft 8 kts 168°
2026-05-06 19:05 47.26000 11.35273 1901 ft 5 kts 170°
2026-05-06 19:05 47.25954 11.35284 1897 ft 8 kts 171°
2026-05-06 19:05 47.25898 11.35292 1896 ft 0 kts 180°
2026-05-06 19:06 47.25897 11.35292 1896 ft 0 kts 180°
2026-05-06 19:06 47.25891 11.35289 1898 ft 2 kts 192°
2026-05-06 19:06 47.25867 11.35285 1898 ft 6 kts 179°
2026-05-06 19:06 47.25844 11.35288 1904 ft 0 kts 172°